TimeCST,TemperatureF,Dew PointF,Humidity,Sea Level PressureIn,VisibilityMPH,Wind Direction,Wind SpeedMPH,Gust SpeedMPH,PrecipitationIn,Events,Conditions,WindDirDegrees,DateUTC
12:15 AM,41.0,41.0,100,30.03,7.0,Calm,Calm,-,N/A,,Clear,0,2012-12-19 06:15:00
12:35 AM,41.0,41.0,100,30.03,4.0,Calm,Calm,-,N/A,,Clear,0,2012-12-19 06:35:00
12:55 AM,39.2,39.2,100,30.03,3.0,Calm,Calm,-,N/A,,Clear,0,2012-12-19 06:55:00
1:15 AM,39.2,39.2,100,30.03,1.5,Calm,Calm,-,N/A,,Unknown,0,2012-12-19 07:15:00
1:35 AM,39.2,39.2,100,30.03,0.8,Calm,Calm,-,N/A,,Unknown,0,2012-12-19 07:35:00
1:55 AM,39.2,39.2,100,30.03,1.2,Calm,Calm,-,N/A,,Unknown,0,2012-12-19 07:55:00
2:15 AM,41.0,39.2,93,30.02,1.8,Calm,Calm,-,N/A,,Mist,0,2012-12-19 08:15:00
2:35 AM,39.2,39.2,100,30.03,1.8,Calm,Calm,-,N/A,,Mist,0,2012-12-19 08:35:00
2:55 AM,39.2,39.2,100,30.03,2.5,Calm,Calm,-,N/A,,Clear,0,2012-12-19 08:55:00
3:15 AM,39.2,39.2,100,30.03,1.8,Calm,Calm,-,N/A,,Unknown,0,2012-12-19 09:15:00
3:35 AM,37.4,37.4,100,30.03,1.2,Calm,Calm,-,N/A,Snow,Light Snow,0,2012-12-19 09:35:00
4:15 AM,39.2,39.2,100,30.02,10.0,Calm,Calm,-,N/A,,Clear,0,2012-12-19 10:15:00
4:35 AM,37.4,37.4,100,30.03,3.0,Calm,Calm,-,N/A,,Clear,0,2012-12-19 10:35:00
4:55 AM,39.2,39.2,100,30.03,7.0,Calm,Calm,-,N/A,,Clear,0,2012-12-19 10:55:00
5:15 AM,39.2,39.2,100,30.04,7.0,Calm,Calm,-,N/A,,Clear,0,2012-12-19 11:15:00
5:35 AM,41.0,41.0,100,30.04,7.0,Calm,Calm,-,N/A,,Clear,0,2012-12-19 11:35:00
5:55 AM,39.2,39.2,100,30.04,7.0,Calm,Calm,-,N/A,,Clear,0,2012-12-19 11:55:00
6:15 AM,39.2,39.2,100,30.05,5.0,Calm,Calm,-,N/A,,Clear,0,2012-12-19 12:15:00
6:55 AM,39.2,39.2,100,30.05,4.0,Calm,Calm,-,N/A,,Clear,0,2012-12-19 12:55:00
7:15 AM,41.0,41.0,100,30.06,5.0,Calm,Calm,-,N/A,,Clear,0,2012-12-19 13:15:00
7:35 AM,42.8,42.8,100,30.07,5.0,Calm,Calm,-,N/A,,Clear,0,2012-12-19 13:35:00
7:55 AM,46.4,46.4,100,30.07,4.0,Calm,Calm,-,N/A,,Clear,0,2012-12-19 13:55:00
8:15 AM,53.6,50.0,88,30.07,7.0,Calm,Calm,-,N/A,,Clear,0,2012-12-19 14:15:00
8:35 AM,57.2,51.8,82,30.08,7.0,Calm,Calm,-,N/A,,Clear,0,2012-12-19 14:35:00
9:15 AM,64.4,55.4,73,30.08,7.0,ESE,4.6,-,N/A,,Clear,120,2012-12-19 15:15:00
9:35 AM,66.2,55.4,68,30.09,7.0,ESE,4.6,-,N/A,,Clear,120,2012-12-19 15:35:00
9:55 AM,69.8,55.4,60,30.09,10.0,SE,5.8,-,N/A,,Clear,140,2012-12-19 15:55:00
10:15 AM,71.6,55.4,57,30.08,7.0,SE,8.1,-,N/A,,Clear,140,2012-12-19 16:15:00
10:35 AM,71.6,53.6,53,30.09,10.0,SSE,11.5,-,N/A,,Clear,150,2012-12-19 16:35:00
10:55 AM,71.6,53.6,53,30.08,10.0,SE,10.4,-,N/A,,Clear,140,2012-12-19 16:55:00
11:15 AM,71.6,53.6,53,30.08,10.0,SE,6.9,-,N/A,,Clear,140,2012-12-19 17:15:00
11:35 AM,73.4,53.6,50,30.07,10.0,South,10.4,-,N/A,,Clear,170,2012-12-19 17:35:00
11:55 AM,73.4,51.8,47,30.06,7.0,SSE,10.4,-,N/A,,Clear,160,2012-12-19 17:55:00
12:15 PM,73.4,51.8,47,30.05,5.0,South,11.5,-,N/A,,Haze,170,2012-12-19 18:15:00
12:35 PM,73.4,51.8,47,30.04,7.0,South,13.8,-,N/A,,Clear,170,2012-12-19 18:35:00
12:55 PM,73.4,51.8,47,30.03,10.0,SE,10.4,-,N/A,,Clear,140,2012-12-19 18:55:00
1:15 PM,73.4,51.8,47,30.02,10.0,SSE,11.5,-,N/A,,Clear,160,2012-12-19 19:15:00
1:35 PM,73.4,53.6,50,30.01,7.0,SSE,12.7,-,N/A,,Clear,160,2012-12-19 19:35:00
1:55 PM,73.4,53.6,50,30.01,10.0,SSE,11.5,-,N/A,,Clear,150,2012-12-19 19:55:00
2:15 PM,73.4,55.4,53,30.01,10.0,South,13.8,-,N/A,,Clear,170,2012-12-19 20:15:00
2:35 PM,73.4,55.4,53,30.01,7.0,SSE,13.8,-,N/A,,Clear,160,2012-12-19 20:35:00
2:55 PM,73.4,55.4,53,30.01,7.0,SSE,12.7,-,N/A,,Clear,150,2012-12-19 20:55:00
3:15 PM,71.6,55.4,57,30.00,10.0,SE,12.7,-,N/A,,Clear,130,2012-12-19 21:15:00
3:35 PM,71.6,55.4,57,30.00,10.0,SE,13.8,-,N/A,,Clear,130,2012-12-19 21:35:00
3:55 PM,71.6,55.4,57,30.00,7.0,SE,12.7,18.4,N/A,,Clear,130,2012-12-19 21:55:00
4:15 PM,69.8,57.2,64,30.00,7.0,SE,11.5,-,N/A,,Clear,140,2012-12-19 22:15:00
4:35 PM,69.8,57.2,64,29.99,10.0,SE,6.9,-,N/A,,Clear,130,2012-12-19 22:35:00
4:55 PM,68.0,59.0,73,29.99,10.0,ESE,5.8,-,N/A,,Scattered Clouds,120,2012-12-19 22:55:00
5:15 PM,66.2,59.0,78,29.99,7.0,East,3.5,-,N/A,,Scattered Clouds,100,2012-12-19 23:15:00
5:35 PM,64.4,59.0,83,29.99,10.0,ESE,4.6,-,N/A,,Clear,120,2012-12-19 23:35:00
5:55 PM,64.4,59.0,83,29.99,7.0,ESE,3.5,-,N/A,,Clear,110,2012-12-19 23:55:00
6:15 PM,64.4,59.0,83,29.99,10.0,ESE,3.5,-,N/A,,Mostly Cloudy,110,2012-12-20 00:15:00
6:35 PM,62.6,59.0,88,29.98,10.0,East,4.6,-,N/A,,Scattered Clouds,100,2012-12-20 00:35:00
6:55 PM,62.6,59.0,88,29.98,7.0,ESE,3.5,-,N/A,,Clear,110,2012-12-20 00:55:00
7:15 PM,62.6,59.0,88,29.98,7.0,ESE,4.6,-,N/A,,Clear,110,2012-12-20 01:15:00
7:35 PM,62.6,60.8,94,29.98,7.0,ESE,3.5,-,N/A,,Clear,120,2012-12-20 01:35:00
7:55 PM,62.6,60.8,94,29.99,7.0,SE,3.5,-,N/A,,Mostly Cloudy,130,2012-12-20 01:55:00
8:15 PM,64.4,62.6,94,29.98,7.0,ESE,4.6,-,N/A,,Overcast,120,2012-12-20 02:15:00
8:35 PM,66.2,62.6,88,29.97,10.0,ESE,4.6,-,N/A,,Overcast,110,2012-12-20 02:35:00
8:55 PM,66.2,62.6,88,29.97,10.0,East,4.6,-,N/A,,Overcast,100,2012-12-20 02:55:00
9:15 PM,68.0,64.4,88,29.97,7.0,ESE,5.8,-,N/A,,Overcast,110,2012-12-20 03:15:00
9:35 PM,68.0,64.4,88,29.96,7.0,ESE,8.1,-,N/A,,Overcast,120,2012-12-20 03:35:00
9:55 PM,69.8,64.4,83,29.96,7.0,SE,9.2,-,N/A,,Overcast,130,2012-12-20 03:55:00
10:15 PM,69.8,66.2,88,29.96,10.0,SE,11.5,-,N/A,Rain,Light Rain,140,2012-12-20 04:15:00
10:35 PM,69.8,68.0,94,29.95,7.0,SE,8.1,-,0.01,Rain,Light Rain,140,2012-12-20 04:35:00
10:55 PM,69.8,68.0,94,29.95,7.0,SE,11.5,-,0.01,,Overcast,140,2012-12-20 04:55:00
11:15 PM,69.8,68.0,94,29.95,7.0,SE,11.5,16.1,N/A,,Overcast,140,2012-12-20 05:15:00
11:35 PM,69.8,68.0,94,29.95,7.0,SE,16.1,-,N/A,,Overcast,140,2012-12-20 05:35:00
11:55 PM,71.6,68.0,88,29.94,7.0,SE,12.7,20.7,N/A,,Overcast,140,2012-12-20 05:55:00